Location: Kelshall
(52.0000°N, 0.0500°W)
Time: 22:41:04
(UTC+00:00)

Cosmos 1655 Rocket - Pass Details

Date: 18 September 2020
Orbit: 971 x 1005 km, 82.9° (Epoch: 30 October)

Event Time Altitude Azimuth Distance (km) Brightness Sun altitude
Rises 21:03:06 0° 350° (N) 3,686 7.8 -25.6°
Reaches altitude 10° 21:05:38 10° 352° (N) 2,737 7.0 -25.9°
Maximum altitude 21:11:55 74° 78° (ENE) 1,025 3.9 -26.6°
Enters shadow 21:12:33 68° 122° (ESE) 1,057 3.9 -26.7°
